Ashgabat Airport
UTAA : now visible

Airfield :











YOU CAN JOIN US ON...

 
LOGIN :

Register | Disclaimer

   EN    FR    IT 

 









Legend :    VFR   Marginal VFR   IFR   Intensive IFR   Very Intensive IFR
Visi :
Ceiling :
>= 8 km
>= 3000ft
5 to 8 km
1000 to 3000 ft
1500m to 5 km
500 to 1000 ft
800 to 1500m
200 to 500 ft
< 800m
< 200 ft
Symbols :   Thunderstorms  Fog  Heavy snow  Heavy precipitations  Wind > 20 kt







- Airport Elevation : 692 ft
- IATA code : ASB


UTAA - Ashgabat

CURRENT METAR :
  • 230500Z 04004KT 360V080 9999 NSC 35/08 Q1007 R88/CLRD70 NOSIG

EXPIRED METARs :
  • 230400Z VRB02KT 9999 NSC 33/07 Q1007 R88/CLRD70 NOSIG
  • 230300Z 00000MPS 9999 NSC 31/02 Q1006 R88/CLRD70 NOSIG

TAF TAF UTAA
Valid from the 23 at 00:00 until the 24 at 00:00 UTC


222230Z 2300/2324 08014KT 6000 SCT050 TX41/2309Z
TEMPO 2300/2302 18014KT 3000 HZ
BECMG 2303/2305 02012G22KT
UTAA FIR / Asia



MET'MAP, your aeronautical weather chart ! - Copyright ORBIFLY December 2007 - Disclaimer

ORBIFLY MET'MAP TEAM :

Programming & Development : Alexandra Zaïnal
Concept & Development : Baudouin d'Aumeries
Co-Development & Prog : Marc-Olivier Méhu
Technical & hardware support : Manuel Goepfert

Contact : metmap@orbifly.com




SOURCES & CREDITS :

   NOAA       Earth
Advisory